W2MMD-13 Weather Reports


Display with metric or nautical units.
time (UTC)temp
F
wind
direction
speed
MPH
gust
MPH
rain 1hr
in
rain 24hr
in
rain mn
in
humidity
%
barometer
mb
20260506201839 68 225 11.0 11.0 0.00 0.00 0.00 80
20260506200839 68 203 11.0 11.0 0.00 0.00 0.00 80
20260506195850 68 180 13.0 13.0 0.00 0.00 0.00 80
20260506195839 68 203 9.0 9.0 0.00 0.00 0.00 80
20260506194839 68 203 7.0 7.0 0.00 0.00 0.00 80
20260506193839 68 203 9.0 9.0 0.00 0.00 0.00 81
20260506192839 68 225 12.0 12.0 0.00 0.00 0.00 81
20260506191850 67 180 10.0 10.0 0.00 0.00 0.00 82
20260506191839 67 180 8.0 8.0 0.00 0.00 0.00 82
20260506190912 67 203 13.0 13.0 0.00 0.00 0.00 82
20260506190839 67 203 13.0 13.0 0.00 0.00 0.00 82
20260506185850 66 203 10.0 10.0 0.00 0.00 0.00 82
20260506185839 66 203 12.0 12.0 0.00 0.00 0.00 82
20260506184850 66 203 10.0 10.0 0.00 0.00 0.00 82
20260506184839 66 203 16.0 16.0 0.00 0.00 0.00 82
20260506183840 66 203 9.0 9.0 0.00 0.00 0.00 83
20260506182840 66 203 15.0 15.0 0.00 0.00 0.00 83
20260506181840 66 248 9.0 9.0 0.00 0.00 0.00 83
20260506180851 66 203 14.0 14.0 0.00 0.00 0.00 83
20260506180840 66 203 11.0 11.0 0.00 0.00 0.00 83
20260506175840 65 225 13.0 13.0 0.00 0.00 0.00 84
20260506174840 65 180 9.0 9.0 0.00 0.00 0.00 84
20260506173851 66 225 12.0 12.0 0.00 0.00 0.00 82
20260506173840 66 203 7.0 7.0 0.00 0.00 0.00 82
20260506172839 66 135 7.0 7.0 0.00 0.00 0.00 82
20260506171839 66 203 4.0 4.0 0.00 0.00 0.00 82
20260506170839 66 203 11.0 11.0 0.00 0.00 0.00 82
20260506165839 66 203 16.0 16.0 0.00 0.00 0.00 81
20260506164852 66 203 15.0 15.0 0.00 0.00 0.00 82
20260506164839 66 113 13.0 13.0 0.00 0.00 0.00 82
20260506163839 66 135 6.0 6.0 0.00 0.00 0.00 82
20260506162851 66 158 10.0 10.0 0.00 0.00 0.00 82
20260506162839 66 180 12.0 12.0 0.00 0.00 0.00 82
20260506161839 66 158 7.0 7.0 0.00 0.00 0.00 82
20260506160839 67 203 10.0 10.0 0.00 0.00 0.00 79
20260506155839 68 203 13.0 13.0 0.00 0.00 0.00 76
20260506154850 68 158 7.0 7.0 0.00 0.00 0.00 74
20260506153851 69 180 15.0 15.0 0.00 0.00 0.00 73
20260506152839 69 158 10.0 10.0 0.00 0.00 0.00 70
20260506152646 69 158 10.0 10.0 0.00 0.00 0.00 71
20260506151851 69 158 10.0 10.0 0.00 0.00 0.00 71
20260506151839 69 158 13.0 13.0 0.00 0.00 0.00 71
20260506150839 69 180 7.0 7.0 0.00 0.00 0.00 71
20260506150350 69 180 11.0 11.0 0.00 0.00 0.00 70
20260506145839 69 180 11.0 11.0 0.00 0.00 0.00 70
20260506144839 69 23 3.0 3.0 0.00 0.00 0.00 70
20260506143839 69 180 12.0 12.0 0.00 0.00 0.00 70
20260506142850 69 203 9.0 9.0 0.00 0.00 0.00 69
20260506142839 69 203 11.0 11.0 0.00 0.00 0.00 69
20260506141839 68 180 6.0 6.0 0.00 0.00 0.00 70
20260506140839 69 203 10.0 10.0 0.00 0.00 0.00 69
20260506135839 69 225 7.0 7.0 0.00 0.00 0.00 69
20260506134850 69 158 10.0 10.0 0.00 0.00 0.00 69
20260506134839 69 135 11.0 11.0 0.00 0.00 0.00 69
20260506133851 69 203 9.0 9.0 0.00 0.00 0.00 69
20260506133839 69 113 11.0 11.0 0.00 0.00 0.00 69
20260506132839 68 158 6.0 6.0 0.00 0.00 0.00 71
20260506131839 68 180 8.0 8.0 0.00 0.00 0.00 72
20260506130839 68 180 8.0 8.0 0.00 0.00 0.00 72
20260506125851 68 203 12.0 12.0 0.00 0.00 0.00 73
20260506125839 68 158 15.0 15.0 0.00 0.00 0.00 73
20260506125322 67 203 13.0 13.0 0.00 0.00 0.00 74
20260506124839 67 203 13.0 13.0 0.00 0.00 0.00 74
20260506123839 68 135 10.0 10.0 0.00 0.00 0.00 73
20260506122851 67 113 7.0 7.0 0.00 0.00 0.00 76
20260506122840 67 113 11.0 11.0 0.00 0.00 0.00 76
20260506121840 66 158 11.0 11.0 0.00 0.00 0.00 77
20260506120851 66 135 10.0 10.0 0.00 0.00 0.00 77
20260506120840 66 135 12.0 12.0 0.00 0.00 0.00 77
20260506115840 66 158 11.0 11.0 0.00 0.00 0.00 77
20260506114840 65 203 9.0 9.0 0.00 0.00 0.00 80
20260506113852 65 135 10.0 10.0 0.00 0.00 0.00 79
20260506113840 65 135 5.0 5.0 0.00 0.00 0.00 79
20260506112840 65 158 8.0 8.0 0.00 0.00 0.00 80
20260506111852 65 180 8.0 8.0 0.00 0.00 0.00 81
20260506111840 65 180 10.0 10.0 0.00 0.00 0.00 81
20260506110840 64 180 8.0 8.0 0.00 0.00 0.00 81
20260506105851 64 90 7.0 7.0 0.00 0.00 0.00 81
20260506105840 64 113 10.0 10.0 0.00 0.00 0.00 81
20260506104839 64 158 9.0 9.0 0.00 0.00 0.00 82
20260506103839 63 113 5.0 5.0 0.00 0.00 0.00 82
20260506102851 63 180 7.0 7.0 0.00 0.00 0.00 83
20260506102839 63 180 8.0 8.0 0.00 0.00 0.00 83
20260506101959 62 225 7.0 7.0 0.00 0.00 0.00 83
20260506101839 62 225 7.0 7.0 0.00 0.00 0.00 83
20260506100851 62 180 10.0 10.0 0.00 0.00 0.00 83
20260506100839 62 158 13.0 13.0 0.00 0.00 0.00 83
20260506095839 62 135 3.0 3.0 0.00 0.00 0.00 83
20260506094851 63 158 7.0 7.0 0.00 0.00 0.00 83
20260506094839 63 158 9.0 9.0 0.00 0.00 0.00 83
20260506093922 63 180 10.0 10.0 0.00 0.00 0.00 83
20260506093851 63 180 10.0 10.0 0.00 0.00 0.00 83
20260506093839 63 180 8.0 8.0 0.00 0.00 0.00 83
20260506092839 63 180 7.0 7.0 0.00 0.00 0.00 83
20260506091850 63 113 8.0 8.0 0.00 0.00 0.00 83
20260506091839 63 113 6.0 6.0 0.00 0.00 0.00 83
20260506090839 63 180 11.0 11.0 0.00 0.00 0.00 83
20260506085850 63 180 5.0 5.0 0.00 0.00 0.00 83
20260506085839 63 180 7.0 7.0 0.00 0.00 0.00 83
20260506084839 63 203 4.0 4.0 0.00 0.00 0.00 83
20260506083839 64 203 8.0 8.0 0.00 0.00 0.00 83
20260506082850 64 203 11.0 11.0 0.00 0.00 0.00 83
20260506082839 64 203 12.0 12.0 0.00 0.00 0.00 83
20260506081839 63 180 9.0 9.0 0.00 0.00 0.00 83
20260506080851 64 135 6.0 6.0 0.00 0.00 0.00 83
20260506080839 64 180 8.0 8.0 0.00 0.00 0.00 83
20260506072850 64 113 6.0 6.0 0.00 0.00 0.00 82
20260506072839 64 180 4.0 4.0 0.00 0.00 0.00 82
20260506071839 64 180 8.0 8.0 0.00 0.00 0.00 82
20260506070839 65 180 8.0 8.0 0.00 0.00 0.00 82
20260506061840 65 180 9.0 9.0 0.00 0.00 0.00 81
20260506060851 65 135 11.0 11.0 0.00 0.00 0.00 81
20260506060840 65 135 9.0 9.0 0.00 0.00 0.00 81
20260506050840 66 180 5.0 5.0 0.00 0.00 0.00 80
20260506044840 66 158 9.0 9.0 0.00 0.00 0.00 79
20260506043840 66 203 5.0 5.0 0.00 0.00 0.00 79
20260506043031 66 135 8.0 8.0 0.00 0.00 0.00 79
20260506042840 66 135 8.0 8.0 0.00 0.00 0.00 79
20260506042012 66 180 7.0 7.0 0.00 0.00 0.00 78
20260506041850 66 180 7.0 7.0 0.00 0.00 0.00 78
20260506041840 66 113 8.0 8.0 0.00 0.00 0.00 78
20260506040839 66 135 9.0 9.0 0.00 0.00 0.00 77
20260506035839 66 135 7.0 7.0 0.00 0.00 0.00 77
20260506034840 66 225 8.0 8.0 0.00 0.00 0.00 76
20260506033839 67 158 7.0 7.0 0.00 0.00 0.00 76
20260506033600 67 135 8.0 8.0 0.00 0.00 0.00 76
20260506032851 67 135 8.0 8.0 0.00 0.00 0.00 76
20260506032839 67 135 9.0 9.0 0.00 0.00 0.00 76
20260506031839 67 203 6.0 6.0 0.00 0.00 0.00 75
20260506031233 67 180 10.0 10.0 0.00 0.00 0.00 74
20260506030839 67 180 10.0 10.0 0.00 0.00 0.00 74
20260506025851 67 158 9.0 9.0 0.00 0.00 0.00 73
20260506025839 67 158 8.0 8.0 0.00 0.00 0.00 73
20260506024839 68 158 5.0 5.0 0.00 0.00 0.00 72
20260506023839 68 180 12.0 12.0 0.00 0.00 0.00 71
20260506022839 68 158 9.0 9.0 0.00 0.00 0.00 70
20260506021851 69 158 8.0 8.0 0.00 0.00 0.00 68
20260506021839 69 158 6.0 6.0 0.00 0.00 0.00 68
20260506020851 69 225 9.0 9.0 0.00 0.00 0.00 67
20260506020839 69 225 10.0 10.0 0.00 0.00 0.00 67
20260506015839 69 90 8.0 8.0 0.00 0.00 0.00 66
20260506014850 69 135 8.0 8.0 0.00 0.00 0.00 66
20260506014839 69 158 6.0 6.0 0.00 0.00 0.00 66
20260506013839 69 158 13.0 13.0 0.00 0.00 0.00 66
20260506012851 69 135 9.0 9.0 0.00 0.00 0.00 66
20260506012839 69 158 12.0 12.0 0.00 0.00 0.00 66
20260506011839 69 158 7.0 7.0 0.00 0.00 0.00 66
20260506010839 69 158 7.0 7.0 0.00 0.00 0.00 66
20260506005852 69 135 9.0 9.0 0.00 0.00 0.00 66
20260506005839 69 158 5.0 5.0 0.00 0.00 0.00 66
20260506004839 70 113 6.0 6.0 0.00 0.00 0.00 65
20260506003852 70 315 5.0 5.0 0.00 0.00 0.00 63
20260506003839 70 315 8.0 8.0 0.00 0.00 0.00 63
20260506002839 71 113 8.0 8.0 0.00 0.00 0.00 61
20260506001852 71 180 8.0 8.0 0.00 0.00 0.00 58
20260506001839 71 113 7.0 7.0 0.00 0.00 0.00 58
20260506000839 72 180 6.0 6.0 0.00 0.00 0.00 55
20260505235840 73 113 9.0 9.0 0.00 0.00 0.00 55
20260505234840 74 135 4.0 4.0 0.00 0.00 0.00 53
20260505233840 75 113 8.0 8.0 0.00 0.00 0.00 50
20260505232840 76 180 9.0 9.0 0.00 0.00 0.00 45
20260505231840 77 180 4.0 4.0 0.00 0.00 0.00 45
20260505230840 78 90 5.0 5.0 0.00 0.00 0.00 44
20260505225840 78 158 10.0 10.0 0.00 0.00 0.00 43
20260505224840 79 135 8.0 8.0 0.00 0.00 0.00 42
20260505223840 80 158 8.0 8.0 0.00 0.00 0.00 42
20260505222840 80 158 11.0 11.0 0.00 0.00 0.00 42
20260505221840 79 203 13.0 13.0 0.00 0.00 0.00 43
20260505220840 79 180 10.0 10.0 0.00 0.00 0.00 43
20260505215840 80 158 12.0 12.0 0.00 0.00 0.00 42
20260505214839 80 180 10.0 10.0 0.00 0.00 0.00 42
20260505213839 81 180 16.0 16.0 0.00 0.00 0.00 42
20260505212839 81 135 14.0 14.0 0.00 0.00 0.00 41
20260505211839 81 203 8.0 8.0 0.00 0.00 0.00 40
20260505210839 82 180 10.0 10.0 0.00 0.00 0.00 39
20260505205839 82 203 16.0 16.0 0.00 0.00 0.00 39
20260505204839 82 158 6.0 6.0 0.00 0.00 0.00 39
20260505203853 82 203 11.0 11.0 0.00 0.00 0.00 37
20260505203839 82 203 12.0 12.0 0.00 0.00 0.00 37
20260505202839 82 203 12.0 12.0 0.00 0.00 0.00 36